When you browse on this site, cookies collect data to enhance your experience and personalize the content and advertising you see.
Visit our Privacy Policy to learn more. By continuing to use the site, you agree to this use of cookies and data.
  • In Hungary
  • List of Countries
  • For 7 days
  • Water Temperature
  • Weather Map
  • News
  • Weather Widgets
  • user-avatar
    Login

    Hourly Weather Gajlity

    Today, 22 September, Sunday

    Time Temperature Precipitation Wind Pressure Humidity
    00:00 +10°C° 0 mm 2 mps 754 mmHg 97%
    01:00 +9°C° 0 mm 2 mps 754 mmHg 97%
    02:00 +9°C° 0 mm 2 mps 754 mmHg 97%
    03:00 +9°C° 0 mm 2 mps 754 mmHg 97%
    04:00 +9°C° 0 mm 2 mps 753 mmHg 97%
    05:00 +9°C° 0 mm 3 mps 753 mmHg 94%
    06:00 +10°C° 0 mm 3 mps 754 mmHg 92%
    07:00 +11°C° 0 mm 3 mps 754 mmHg 90%
    08:00 +13°C° 0 mm 3 mps 753 mmHg 82%
    09:00 +14°C° 0 mm 3 mps 753 mmHg 75%
    10:00 +17°C° 0 mm 3 mps 753 mmHg 67%
    11:00 +19°C° 0 mm 3 mps 753 mmHg 63%
    12:00 +20°C° 0 mm 3 mps 753 mmHg 58%
    13:00 +21°C° 0 mm 3 mps 752 mmHg 54%
    14:00 +20°C° 0 mm 3 mps 752 mmHg 57%
    15:00 +20°C° 0 mm 3 mps 752 mmHg 60%
    16:00 +19°C° 0 mm 2 mps 752 mmHg 63%
    17:00 +17°C° 0 mm 2 mps 752 mmHg 72%
    18:00 +15°C° 0 mm 2 mps 752 mmHg 81%
    19:00 +13°C° 0 mm 2 mps 752 mmHg 90%
    20:00 +12°C° 0 mm 2 mps 752 mmHg 91%
    21:00 +11°C° 0 mm 3 mps 753 mmHg 93%
    22:00 +10°C° 0 mm 3 mps 753 mmHg 95%
    23:00 +10°C° 0 mm 3 mps 753 mmHg 91%

    Tomorrow, 23 September, Monday

    Time Temperature Precipitation Wind Pressure Humidity
    00:00 +10°C° 0 mm 3 mps 753 mmHg 87%
    01:00 +10°C° 0 mm 4 mps 754 mmHg 84%
    02:00 +9°C° 0 mm 3 mps 754 mmHg 82%
    03:00 +9°C° 0 mm 3 mps 754 mmHg 80%
    04:00 +9°C° 0 mm 3 mps 754 mmHg 78%
    05:00 +9°C° 0 mm 3 mps 754 mmHg 76%
    06:00 +8°C° 0 mm 4 mps 754 mmHg 74%
    07:00 +10°C° 0 mm 4 mps 754 mmHg 73%
    08:00 +11°C° 0 mm 4 mps 754 mmHg 70%
    09:00 +12°C° 0 mm 4 mps 754 mmHg 67%
    10:00 +13°C° 0 mm 4 mps 755 mmHg 64%
    11:00 +14°C° 0 mm 4 mps 754 mmHg 63%
    12:00 +14°C° 0 mm 4 mps 754 mmHg 62%
    13:00 +15°C° 0 mm 4 mps 754 mmHg 61%
    14:00 +15°C° 0 mm 4 mps 754 mmHg 62%
    15:00 +14°C° 0 mm 4 mps 753 mmHg 63%
    16:00 +14°C° 0 mm 3 mps 753 mmHg 64%
    17:00 +12°C° 0 mm 3 mps 753 mmHg 68%
    18:00 +11°C° 0 mm 3 mps 753 mmHg 73%
    19:00 +9°C° 0 mm 3 mps 754 mmHg 77%
    20:00 +9°C° 0 mm 3 mps 754 mmHg 78%
    21:00 +8°C° 0 mm 3 mps 754 mmHg 79%
    22:00 +7°C° 0 mm 3 mps 754 mmHg 80%
    23:00 +7°C° 0 mm 3 mps 754 mmHg 82%

    Day after tomorrow, 24 September, Tuesday

    Time Temperature Precipitation Wind Pressure Humidity
    00:00 +7°C° 0 mm 3 mps 754 mmHg 83%
    01:00 +7°C° 0 mm 2 mps 753 mmHg 84%
    02:00 +5°C° 0 mm 3 mps 753 mmHg 85%
    03:00 +5°C° 0 mm 3 mps 753 mmHg 86%
    04:00 +5°C° 0 mm 3 mps 752 mmHg 87%
    05:00 +5°C° 0 mm 3 mps 752 mmHg 85%
    06:00 +7°C° 0 mm 3 mps 752 mmHg 83%
    07:00 +8°C° 0 mm 3 mps 752 mmHg 81%
    08:00 +10°C° 0 mm 3 mps 752 mmHg 75%
    09:00 +12°C° 0 mm 4 mps 752 mmHg 70%
    10:00 +14°C° 0 mm 4 mps 752 mmHg 65%
    11:00 +15°C° 0 mm 4 mps 751 mmHg 62%
    12:00 +17°C° 0 mm 4 mps 751 mmHg 60%
    13:00 +18°C° 0 mm 4 mps 750 mmHg 57%
    14:00 +18°C° 0 mm 3 mps 750 mmHg 59%
    15:00 +18°C° 0 mm 3 mps 749 mmHg 61%
    16:00 +18°C° 0 mm 3 mps 749 mmHg 63%
    17:00 +16°C° 0 mm 3 mps 748 mmHg 70%
    18:00 +14°C° 0 mm 3 mps 748 mmHg 76%
    19:00 +12°C° 0 mm 3 mps 748 mmHg 82%
    20:00 +12°C° 0 mm 3 mps 748 mmHg 80%
    21:00 +12°C° 0 mm 4 mps 748 mmHg 78%
    22:00 +12°C° 0 mm 4 mps 748 mmHg 76%
    23:00 +12°C° 0.2 mm 4 mps 747 mmHg 78%

    25 September, Wednesday

    Time Temperature Precipitation Wind Pressure Humidity
    00:00 +12°C° 0.2 mm 4 mps 747 mmHg 80%
    01:00 +12°C° 0.2 mm 4 mps 746 mmHg 81%
    02:00 +12°C° 0.2 mm 4 mps 746 mmHg 84%
    03:00 +12°C° 0.2 mm 4 mps 746 mmHg 86%
    04:00 +12°C° 0.2 mm 3 mps 745 mmHg 88%
    05:00 +12°C° 0.1 mm 3 mps 745 mmHg 90%
    06:00 +12°C° 0.1 mm 3 mps 745 mmHg 91%
    07:00 +12°C° 0.1 mm 3 mps 744 mmHg 93%
    08:00 +13°C° 0.2 mm 3 mps 745 mmHg 93%
    09:00 +13°C° 0.2 mm 3 mps 745 mmHg 93%
    10:00 +14°C° 0.2 mm 2 mps 745 mmHg 93%
    11:00 +15°C° 0.4 mm 2 mps 744 mmHg 88%
    12:00 +16°C° 0.4 mm 2 mps 744 mmHg 84%
    13:00 +17°C° 0.4 mm 2 mps 744 mmHg 80%
    14:00 +18°C° 0.5 mm 1 mps 744 mmHg 80%
    15:00 +18°C° 0.5 mm 1 mps 744 mmHg 80%
    16:00 +18°C° 0.5 mm 1 mps 743 mmHg 80%
    17:00 +16°C° 0.3 mm 1 mps 743 mmHg 83%
    18:00 +15°C° 0.3 mm 1 mps 743 mmHg 86%
    19:00 +14°C° 0.3 mm 1 mps 743 mmHg 89%
    20:00 +14°C° 0 mm 1 mps 743 mmHg 89%
    21:00 +14°C° 0 mm 1 mps 744 mmHg 90%
    22:00 +14°C° 0 mm 2 mps 744 mmHg 91%
    23:00 +14°C° 0.1 mm 2 mps 744 mmHg 92%

    26 September, Thursday

    Time Temperature Precipitation Wind Pressure Humidity
    00:00 +14°C° 0.1 mm 2 mps 744 mmHg 93%
    01:00 +14°C° 0.1 mm 2 mps 744 mmHg 94%
    02:00 +13°C° 0.1 mm 2 mps 744 mmHg 95%
    03:00 +13°C° 0.1 mm 2 mps 744 mmHg 95%
    04:00 +13°C° 0.1 mm 2 mps 744 mmHg 96%
    05:00 +13°C° 0.4 mm 2 mps 744 mmHg 96%
    06:00 +13°C° 0.4 mm 2 mps 744 mmHg 96%
    07:00 +13°C° 0.4 mm 2 mps 744 mmHg 96%
    08:00 +14°C° 0.3 mm 2 mps 745 mmHg 95%
    09:00 +14°C° 0.3 mm 2 mps 745 mmHg 93%
    10:00 +13°C° 0.3 mm 3 mps 746 mmHg 91%
    11:00 +13°C° 0.3 mm 3 mps 746 mmHg 91%
    12:00 +13°C° 0.3 mm 3 mps 746 mmHg 91%
    13:00 +13°C° 0.3 mm 3 mps 746 mmHg 90%
    14:00 +12°C° 0.4 mm 3 mps 746 mmHg 92%
    15:00 +12°C° 0.4 mm 3 mps 747 mmHg 93%
    16:00 +11°C° 0.4 mm 3 mps 747 mmHg 94%
    17:00 +11°C° 0 mm 3 mps 747 mmHg 94%
    18:00 +10°C° 0 mm 3 mps 748 mmHg 95%
    19:00 +10°C° 0 mm 3 mps 748 mmHg 95%
    20:00 +9°C° 0 mm 2 mps 748 mmHg 95%
    21:00 +9°C° 0 mm 2 mps 749 mmHg 94%
    22:00 +9°C° 0 mm 2 mps 749 mmHg 94%
    23:00 +9°C° 0 mm 2 mps 750 mmHg 93%

    27 September, Friday

    Time Temperature Precipitation Wind Pressure Humidity
    00:00 +9°C° 0 mm 2 mps 750 mmHg 93%
    01:00 +9°C° 0 mm 2 mps 750 mmHg 92%
    02:00 +9°C° 0 mm 2 mps 750 mmHg 91%
    03:00 +8°C° 0 mm 2 mps 750 mmHg 90%
    04:00 +8°C° 0 mm 2 mps 750 mmHg 89%
    05:00 +8°C° 0 mm 2 mps 750 mmHg 87%
    06:00 +9°C° 0 mm 2 mps 750 mmHg 84%
    07:00 +9°C° 0 mm 2 mps 751 mmHg 82%
    08:00 +9°C° 0 mm 2 mps 751 mmHg 78%
    09:00 +10°C° 0 mm 2 mps 751 mmHg 74%
    10:00 +10°C° 0 mm 3 mps 751 mmHg 70%
    11:00 +12°C° 0 mm 2 mps 751 mmHg 67%
    12:00 +13°C° 0 mm 2 mps 751 mmHg 64%
    13:00 +14°C° 0 mm 2 mps 751 mmHg 61%
    14:00 +14°C° 0 mm 2 mps 751 mmHg 62%
    15:00 +14°C° 0 mm 2 mps 751 mmHg 64%
    16:00 +14°C° 0 mm 2 mps 751 mmHg 66%
    17:00 +12°C° 0 mm 2 mps 751 mmHg 71%
    18:00 +10°C° 0 mm 3 mps 751 mmHg 76%
    19:00 +9°C° 0 mm 3 mps 751 mmHg 81%
    20:00 +9°C° 0 mm 3 mps 751 mmHg 80%
    21:00 +8°C° 0 mm 4 mps 751 mmHg 79%
    22:00 +8°C° 0 mm 4 mps 751 mmHg 78%
    23:00 +8°C° 0 mm 4 mps 751 mmHg 78%
    Show more